[[{"header":{"parameterUnit":"m.s-1","parameterCategory":1,"la1":30.2991,"la2":30.254,"lo1":-89.0895,"lo2":-89.0444,"dy":0.0017,"dx":0.0017,"nx":28,"ny":28,"refTime":"2024-04-25T21:00:00:Z","depth":0,"parameterNumber":2,"parameterNumberName":"U-component_of_WINDS"},"data":[0,0,0,0,0,0,0,0,0,0,0,0,0,0,0,0,0,0,0,0,0,0,0,0,0,0,0,0,0,0,0,0,0,0,0,0,0,0,0,0,0,0,0,0,0,0,0,0,0,0,0,0,0,0,0,0,0,0,-5.9131,-5.9132,0,-5.9223,-5.9225,-5.9226,-5.9218,-5.9217,-5.9216,-5.9214,-5.9311,-5.9315,-5.9319,0,0,0,0,0,0,0,0,0,0,0,0,0,-5.8949,-5.8952,-5.913,-5.9132,-5.9133,-5.9223,-5.9225,-5.9226,-5.9219,-5.9217,-5.9215,-5.9214,-5.931,-5.9315,-5.9319,0,0,0,0,0,0,0,0,0,0,0,0,0,-5.9034,-5.8953,-5.913,-5.914,-5.9142,-5.9223,-5.9225,-5.9226,-5.9219,-5.9217,-5.9215,-5.9213,-5.9309,-5.9314,-5.932,-5.9398,0,0,-5.9338,-5.9341,0,0,0,0,0,0,0,0,-5.9029,-5.904,-5.9137,-5.9139,-5.9142,-5.9207,-5.9196,-5.9284,-5.9219,-5.919,-5.9214,-5.9212,-5.9279,-5.9287,-5.9309,-5.9403,-5.9407,-5.9339,-5.9342,-5.9345,-5.9346,0,0,0,0,0,0,0,-5.9023,-5.9036,-5.9167,-5.9139,-5.9141,-5.9141,-5.915,-5.9213,-5.9245,-5.9192,-5.9192,-5.9203,-5.9279,-5.9303,-5.9311,-5.9408,-5.9338,-5.9344,-5.9347,-5.9349,-5.9571,-5.9573,0,0,0,0,0,0,-5.9014,-5.9031,-5.9164,-5.917,-5.9079,-5.9146,-5.9156,-5.9188,-5.9244,-5.9251,-5.9205,-5.9202,-5.9294,-5.9304,-5.9315,-5.9409,-5.9345,-5.935,-5.9353,-5.9569,-5.9572,-5.9574,0,0,0,0,0,0,-5.9011,-5.9026,-5.9161,-5.9101,-5.9118,-5.9151,-5.9187,-5.9191,-5.9215,-5.9253,-5.9259,-5.9223,-5.9293,-5.9306,-5.9377,-5.9412,-5.9353,-5.9358,-5.9566,-5.957,-5.9573,-5.9598,0,0,0,0,0,0,-5.9005,-5.9025,-5.9054,-5.9101,-5.9121,-5.9221,-5.9189,-5.9195,-5.9225,-5.9223,-5.9272,-5.9278,-5.9292,-5.9369,-5.9383,-5.9419,-5.9363,-5.9563,-5.9568,-5.9572,-5.9595,-5.9602,-5.9609,0,0,0,0,0,-5.8999,-5.9058,-5.9056,-5.9072,-5.9158,-5.9223,-5.9234,-5.9248,-5.9228,-5.9258,-5.9283,-5.9277,-5.9407,-5.9376,-5.9392,-5.943,-5.9561,-5.9566,-5.9572,-5.9591,-5.9601,-5.9609,0,0,0,0,0,0,-5.9015,-5.9065,-5.9062,-5.9139,-5.9177,-5.9222,-5.926,-5.9258,-5.9303,-5.9299,-5.9316,-5.9327,-5.9398,-5.9422,-5.9387,-5.9509,-5.9481,-5.949,-5.949,-5.95,-5.9507,-5.9499,-5.9367,0,0,0,0,0,-5.9028,-5.9075,-5.9117,-5.918,-5.9199,-5.9226,-5.9255,-5.9263,-5.9303,-5.9319,-5.9349,-5.9389,-5.9439,-5.9471,-5.9519,-5.9599,-5.9609,-5.9633,-5.9641,-5.9646,-5.9653,-5.9697,-5.9707,-5.9592,-5.9592,-5.9592,0,0,-5.9054,-5.9087,-5.9116,-5.9184,-5.9214,-5.9264,-5.924,-5.9293,-5.933,-5.9328,-5.9396,-5.942,-5.9465,-5.9541,-5.9576,-5.9563,-5.9688,-5.9653,-5.9658,-5.9661,-5.9703,-5.9714,-5.9724,-5.9596,-5.9595,-5.9594,0,0,-5.9126,-5.9156,-5.9212,-5.9243,-5.9289,-5.9307,-5.932,-5.9366,-5.9381,-5.945,-5.9449,-5.9494,-5.9579,-5.9611,-5.9639,-5.9725,-5.9721,-5.9741,-5.9778,-5.982,-5.9829,-5.9837,-5.9866,-5.9877,-5.9748,-5.9748,-5.9748,0,-5.9153,-5.9226,-5.9241,-5.9294,-5.9324,-5.9324,-5.9381,-5.941,-5.947,-5.9491,-5.9476,-5.9583,-5.9614,-5.9696,-5.9717,-5.974,-5.9756,-5.9734,-5.9826,-5.9834,-5.9842,-5.987,-5.9882,-5.975,-5.9749,-5.9749,-5.9749,0,-5.9256,-5.9308,-5.9347,-5.9403,-5.9438,-5.9493,-5.9517,-5.9551,-5.9556,-5.9576,-5.9646,-5.9683,-5.9738,-5.9759,-5.9766,-5.9843,-5.9833,-5.9822,-5.9794,-5.9855,-5.9881,-5.9892,-5.9752,-5.9752,-5.9751,-5.9751,0,0,-5.9339,-5.9403,-5.9418,-5.9443,-5.9494,-5.9535,-5.959,-5.9643,-5.9671,-5.9714,-5.976,-5.9833,-5.9823,-5.9854,-5.9865,-5.9902,-5.9966,-5.9886,-5.9887,-5.9898,-6.0053,-6.0059,-6.0071,-5.9965,-5.9967,-5.9969,-6.0048,0,-5.9415,-5.9512,-5.9527,-5.9612,-5.9659,-5.9661,-5.9709,-5.9746,-5.9767,-5.9811,-5.9834,-5.9885,-5.9869,-5.9887,-5.9925,-5.995,-5.9997,-5.9945,-6.0008,-6.001,-5.9994,-6.0086,-6.0093,-6.0166,-6.0059,-6.0061,-6.0062,0,-5.9516,-5.9559,-5.9649,-5.9693,-5.9714,-5.9757,-5.9807,-5.9849,-5.9892,-5.9904,-5.994,-5.9946,-6.0004,-5.9975,-6.0056,-6.002,-6.0047,-6.0064,-6.0067,-6.0072,-6.0038,-6.0091,-6.019,-6.02,-6.0079,-6.0078,-6.0077,0,-5.9565,-5.9647,-5.971,-5.9733,-5.9787,-5.9817,-5.9841,-5.9881,-5.9912,-5.9957,-5.9977,-6.0029,-6.0056,-6.0096,-6.0116,-6.0093,-6.0195,-6.0168,-6.0207,-6.0206,-6.0226,-6.0224,-6.0328,-6.0247,-6.0247,-6.0247,-6.0247,0,-5.9647,-5.9702,-5.9733,-5.9772,-5.9833,-5.9851,-5.9912,-5.9935,-5.9972,-6.0016,-6.0022,-6.0063,-6.0088,-6.0133,-6.015,-6.0213,-6.0227,-6.0238,-6.0241,-6.0236,-6.0235,-6.0253,-6.0247,-6.025,-6.0249,-6.0248,-6.0248,0,-5.9712,-5.9735,-5.9804,-5.985,-5.9863,-5.9906,-5.9945,-5.9984,-6.0005,-6.0061,-6.0075,-6.0108,-6.0162,-6.0186,-6.0254,-6.0265,-6.0336,-6.0337,-6.0321,-6.0322,-6.0359,-6.0354,-6.0476,-6.0493,-6.0403,-6.0403,-6.0404,0,-5.9761,-5.9803,-5.9853,-5.9882,-5.9907,-5.9955,-5.9986,-6.0006,-6.0039,-6.0091,-6.0123,-6.0177,-6.0221,-6.0307,-6.0338,-6.0389,-6.039,-6.043,-6.0398,-6.0391,-6.0389,-6.0385,-6.0389,-6.0435,-6.0436,-6.0436,-6.0437,0,-5.9846,-5.9855,-5.99,-5.9949,-5.9986,-6.0026,-6.0065,-6.009,-6.0116,-6.0153,-6.0207,-6.0241,-6.031,-6.0363,-6.0416,-6.0443,-6.0444,-6.0447,-6.0458,-6.0452,-6.0441,-6.0446,-6.0335,-6.0444,-6.0443,-6.0442,-6.0442,-6.0442,-5.9903,-5.994,-5.998,-6.003,-6.0062,-6.0098,-6.0136,-6.0162,-6.0207,-6.0263,-6.0273,-6.0331,-6.0374,-6.0446,-6.0474,-6.052,-6.0511,-6.0527,-6.0531,-6.0535,-6.0536,-6.0435,-6.053,-6.053,-6.053,-6.053,-6.053,0,-5.9987,-6.0013,-6.0059,-6.0112,-6.0152,-6.015,-6.0193,-6.0226,-6.0277,-6.0316,-6.0359,-6.0422,-6.0474,-6.0509,-6.0562,-6.0593,-6.0595,-6.0606,-6.0603,-6.0608,-6.0542,-6.0526,-6.0603,-6.0603,-6.0603,-6.0603,-6.0603,-6.0603,-6.0035,-6.0096,-6.0111,-6.0188,-6.0215,-6.0271,-6.0295,-6.0329,-6.0361,-6.043,-6.0473,-6.0495,-6.0533,-6.0589,-6.0637,-6.0646,-6.0665,-6.0676,-6.0684,-6.0621,-6.0613,-6.0606,-6.0591,-6.068,-6.068,-6.0747,-6.0747,-6.0748]},{"header":{"parameterUnit":"m.s-1","parameterCategory":1,"la1":30.2991,"la2":30.254,"lo1":-89.0895,"lo2":-89.0444,"dy":0.0017,"dx":0.0017,"nx":28,"ny":28,"refTime":"2024-04-25T21:00:00:Z","depth":0,"parameterNumber":3,"parameterNumberName":"V-component_of_WINDS"},"data":[0,0,0,0,0,0,0,0,0,0,0,0,0,0,0,0,0,0,0,0,0,0,0,0,0,0,0,0,0,0,0,0,0,0,0,0,0,0,0,0,0,0,0,0,0,0,0,0,0,0,0,0,0,0,0,0,0,0,4.137,4.1372,0,4.1528,4.1529,4.1531,4.1635,4.1636,4.1636,4.1637,4.1795,4.1798,4.1801,0,0,0,0,0,0,0,0,0,0,0,0,0,4.1155,4.1158,4.137,4.1372,4.1374,4.1527,4.1529,4.1532,4.1635,4.1636,4.1637,4.1637,4.1793,4.1798,4.1802,0,0,0,0,0,0,0,0,0,0,0,0,0,4.1273,4.1159,4.1369,4.1444,4.1452,4.1527,4.1529,4.1532,4.1635,4.1636,4.1637,4.1638,4.1792,4.1797,4.1802,4.1814,0,0,4.1819,4.1821,0,0,0,0,0,0,0,0,4.1267,4.1281,4.1431,4.1439,4.1448,4.1563,4.1511,4.1627,4.1634,4.1565,4.1637,4.1638,4.1716,4.1728,4.1755,4.1822,4.1828,4.1819,4.1822,4.1825,4.1826,0,0,0,0,0,0,0,4.1258,4.1275,4.1432,4.1433,4.1444,4.1468,4.1486,4.1534,4.1633,4.1571,4.1579,4.1597,4.1721,4.175,4.176,4.1831,4.1819,4.1824,4.1827,4.1829,4.1916,4.1915,0,0,0,0,0,0,4.1239,4.1268,4.1427,4.1437,4.1358,4.1471,4.1491,4.1525,4.1633,4.165,4.1596,4.1601,4.174,4.1753,4.1765,4.1788,4.1825,4.183,4.1833,4.1917,4.1915,4.1914,0,0,0,0,0,0,4.1234,4.1252,4.1421,4.1355,4.1378,4.1474,4.1511,4.1527,4.1556,4.1651,4.1669,4.1607,4.1741,4.1758,4.1802,4.1795,4.1832,4.1837,4.1918,4.1916,4.1915,4.1832,0,0,0,0,0,0,4.1227,4.125,4.1256,4.1354,4.1381,4.1456,4.151,4.153,4.1566,4.1574,4.1666,4.1683,4.1744,4.1793,4.1807,4.1803,4.1841,4.1919,4.1917,4.1915,4.1836,4.1828,4.1821,0,0,0,0,0,4.1219,4.1226,4.1256,4.1275,4.1391,4.1455,4.1471,4.1542,4.1564,4.1572,4.1632,4.168,4.1793,4.1797,4.1813,4.1811,4.192,4.1917,4.1916,4.1839,4.183,4.1822,0,0,0,0,0,0,4.1124,4.124,4.1275,4.1313,4.1374,4.1473,4.1484,4.1529,4.1583,4.1589,4.1673,4.1693,4.1729,4.1774,4.1776,4.1828,4.1862,4.1863,4.1798,4.179,4.1783,4.1772,4.1845,0,0,0,0,0,4.1107,4.115,4.1249,4.1273,4.1302,4.1387,4.1417,4.1467,4.1532,4.1558,4.1622,4.1683,4.1732,4.1763,4.1813,4.1842,4.1864,4.1848,4.184,4.1834,4.1835,4.1854,4.1848,4.1908,4.1908,4.1908,0,0,4.1073,4.1142,4.1164,4.1256,4.1309,4.1351,4.1408,4.145,4.1482,4.1564,4.1611,4.1659,4.1732,4.1769,4.1788,4.1807,4.1823,4.1831,4.1826,4.183,4.1851,4.1846,4.184,4.1907,4.1907,4.1907,0,0,4.1035,4.109,4.1118,4.1169,4.1248,4.1305,4.1311,4.1403,4.1439,4.1487,4.155,4.1587,4.167,4.1721,4.1757,4.1735,4.178,4.1748,4.1711,4.1729,4.1724,4.1721,4.1714,4.1711,4.1748,4.1748,4.1748,0,4.0983,4.105,4.1125,4.1164,4.1203,4.1279,4.1307,4.1353,4.1444,4.1468,4.1488,4.1595,4.1649,4.1699,4.1694,4.1719,4.1729,4.174,4.1719,4.1716,4.1714,4.1709,4.1706,4.1744,4.1744,4.1744,4.1745,0,4.0983,4.1028,4.104,4.1128,4.1167,4.12,4.128,4.131,4.1355,4.1409,4.1456,4.1524,4.159,4.1605,4.1648,4.166,4.167,4.1703,4.1739,4.1703,4.1699,4.1698,4.1737,4.1739,4.174,4.1741,0,0,4.0891,4.1019,4.1023,4.1064,4.1156,4.1192,4.1227,4.1293,4.1318,4.1377,4.1409,4.1477,4.1508,4.1549,4.1599,4.1614,4.1594,4.1646,4.1649,4.1635,4.1612,4.1589,4.1586,4.1624,4.1623,4.1623,4.1607,0,4.0868,4.0938,4.1006,4.1052,4.1095,4.1167,4.1198,4.1257,4.1307,4.135,4.1405,4.1453,4.149,4.1515,4.1533,4.1592,4.1591,4.1594,4.1655,4.1656,4.1637,4.1584,4.1559,4.1541,4.1606,4.1606,4.1606,0,4.0851,4.0909,4.0958,4.1047,4.1067,4.1094,4.116,4.12,4.1268,4.1303,4.1348,4.1401,4.1441,4.147,4.1526,4.1527,4.1555,4.1587,4.1588,4.1599,4.1631,4.1595,4.1536,4.1534,4.1604,4.1604,4.1604,0,4.0782,4.0871,4.0913,4.0945,4.1048,4.1066,4.1109,4.1178,4.1213,4.127,4.1294,4.1353,4.1386,4.143,4.1497,4.1511,4.1546,4.158,4.1577,4.1575,4.1584,4.1583,4.1531,4.1597,4.1597,4.1597,4.1597,0,4.075,4.0778,4.0883,4.0909,4.0943,4.1019,4.105,4.1099,4.116,4.1196,4.126,4.1292,4.1378,4.142,4.1471,4.1511,4.1524,4.1554,4.1568,4.155,4.1547,4.1572,4.1576,4.1596,4.1596,4.1597,4.1597,0,4.068,4.0751,4.0802,4.0895,4.0919,4.094,4.102,4.1047,4.11,4.1145,4.116,4.1243,4.1296,4.1366,4.144,4.1475,4.1508,4.1528,4.1486,4.1495,4.1488,4.1489,4.1453,4.1453,4.1516,4.1515,4.1514,0,4.0657,4.0681,4.0776,4.0806,4.0848,4.0894,4.0931,4.1006,4.1041,4.1119,4.1137,4.1195,4.1245,4.1326,4.1392,4.1449,4.1473,4.1456,4.1482,4.1463,4.1475,4.1474,4.1477,4.1451,4.1449,4.1449,4.1448,0,4.0609,4.0643,4.0693,4.0756,4.0798,4.0851,4.0906,4.0926,4.1012,4.1048,4.1103,4.1142,4.1218,4.1275,4.134,4.1384,4.143,4.1439,4.1442,4.1425,4.14,4.1416,4.1472,4.144,4.1441,4.1441,4.1442,4.1442,4.0563,4.0588,4.066,4.0714,4.0763,4.0813,4.0844,4.0901,4.0949,4.1018,4.1058,4.1112,4.1178,4.1271,4.1313,4.1355,4.1373,4.1376,4.1378,4.1378,4.1373,4.1391,4.1367,4.1367,4.1367,4.1368,4.1368,0,4.0521,4.057,4.0619,4.0695,4.0737,4.0777,4.084,4.0873,4.092,4.0978,4.1026,4.109,4.1144,4.1214,4.1274,4.1294,4.1317,4.1308,4.1308,4.1318,4.1352,4.1345,4.1288,4.1288,4.1288,4.1288,4.1288,4.1288,4.0504,4.0548,4.059,4.0659,4.0708,4.0762,4.0795,4.0841,4.0889,4.0957,4.1003,4.1049,4.1112,4.1176,4.1228,4.1247,4.1266,4.1251,4.1276,4.1308,4.1315,4.1322,4.1316,4.1254,4.1254,4.1239,4.1239,4.1239]}]]